CAPE
0 0 0 0 0 0 0 1 2 1 2 2 3 4 5 5 5 5 7 5 7 8 3 5 6 3 3 2 0 0 0 0 0 3 2 1 0 0 0 0 0 0 0
0 0 0 0 0 0 0 0 1 1 1 1 1 1 2 4 3 5 6 5 8 9 10 4 6 4 5 2 2 2 1 2 0 0 5 3 0 0 0 0 0 0 0
0 0 0 0 0 0 0 1 1 0 1 1 1 1 2 2 2 3 3 5 2 2 1 1 1 0 0 0 0 0 1 2 0 0 2 0 0 0 0 0 0 0 0
0 0 0 0 0 0 0 0 0 0 0 0 1 2 2 1 0 0 0 0 0 0 0 0 0 0 0 0 0 0 0 0 0 0 0 0 0 0 0 0 0 0 0
0 0 0 0 0 0 0 0 0 0 0 0 0 0 0 0 0 0 0 0 0 0 0 0 0 0 0 0 0 0 0 0 0 0 0 0 0 0 0 0 0 0 0
0 0 0 0 0 0 0 0 0 0 0 0 0 0 0 0 0 0 0 0 0 0 0 0 0 0 0 0 0 0 0 0 0 0 0 0 0 0 0 0 0 0 0
0 0 0 0 0 0 0 0 0 0 0 0 0 0 0 0 0 0 0 0 0 0 0 0 0 0 0 0 0 0 0 0 0 0 0 0 0 0 0 0 0 0 0
0 0 0 0 0 0 0 0 0 0 0 0 0 0 0 0 0 0 0 0 0 0 0 0 0 0 0 0 0 0 0 0 0 0 0 0 0 0 0 0 0 0 0
0 0 0 0 0 0 0 0 0 0 0 0 0 0 0 0 0 0 0 0 0 0 0 0 0 0 0 0 0 0 0 0 0 0 0 0 0 0 0 0 0 0 0
0 0 0 0 0 0 0 0 0 0 0 0 0 0 0 0 0 0 0 0 0 0 0 0 0 0 0 0 0 0 0 0 0 0 0 0 0 0 0 0 0 0 0
0 0 0 0 0 0 0 0 0 0 0 0 0 0 0 0 0 0 0 0 0 0 0 0 0 0 0 0 0 0 0 0 0 0 0 0 0 0 0 0 0 0 0
0 0 0 0 0 0 0 0 0 0 0 0 0 0 0 0 0 0 0 0 0 0 0 0 0 0 0 0 0 0 0 0 0 0 0 0 0 0 0 0 0 0 0
0 0 0 0 0 0 0 0 0 0 0 0 0 0 0 0 0 0 0 0 0 0 0 0 0 0 0 0 0 0 0 0 0 0 0 0 0 0 0 0 0 0 0
0 0 0 0 0 0 0 0 0 0 0 0 0 0 0 0 0 0 0 0 0 0 0 0 0 0 0 0 0 0 0 0 0 0 0 0 0 0 0 0 0 0 0
0 0 0 0 0 0 0 0 0 0 0 0 0 0 0 0 0 0 0 0 0 0 0 0 0 0 0 0 0 0 0 0 0 0 0 0 0 0 0 0 0 0 0
0 0 0 0 0 0 0 0 0 0 0 0 0 0 0 0 0 0 0 0 0 0 0 0 0 0 0 0 0 0 0 0 0 0 0 0 0 0 0 0 0 0 0
0 0 0 0 0 0 0 0 0 0 0 0 0 0 0 0 0 0 0 0 0 0 0 0 0 0 0 0 0 0 0 0 0 0 0 0 0 0 0 0 0 0 0
0 0 0 0 0 0 0 0 0 0 0 0 0 0 0 0 0 0 0 0 0 0 0 0 0 0 0 0 0 0 0 0 0 0 0 0 0 0 0 0 0 0 0
0 0 0 0 0 0 0 0 0 0 0 0 0 0 0 0 0 0 0 0 0 0 0 0 0 0 0 0 0 0 0 0 0 0 0 0 0 0 0 0 0 0 0
0 0 0 0 0 0 0 0 0 0 0 0 0 0 0 0 0 0 0 0 0 0 0 0 0 0 0 0 0 0 0 0 0 0 0 0 0 0 0 0 0 0 0
0 0 0 0 0 0 0 0 0 0 0 0 0 0 0 0 0 0 0 0 0 0 0 0 0 0 0 0 0 0 0 0 0 0 0 0 0 0 0 0 0 0 0
0 0 0 0 0 0 0 0 0 0 0 0 0 0 0 0 0 0 0 0 0 0 0 0 0 0 0 0 0 0 0 0 0 0 0 0 0 0 0 0 0 0 0
0 0 0 0 0 0 0 0 0 0 0 0 0 0 0 0 0 0 0 0 0 0 0 0 0 0 0 0 0 0 0 0 0 0 0 0 0 0 0 0 0 0 0
0 0 0 0 0 0 0 0 0 0 0 0 0 0 0 0 0 0 0 0 0 0 0 0 0 0 0 0 0 0 0 0 0 0 0 0 0 0 0 0 0 0 0
0 0 0 0 0 0 0 0 0 0 0 0 0 0 0 0 0 0 0 0 0 0 0 0 0 0 0 0 0 0 0 0 0 0 0 0 0 0 0 0 0 0 0
0 0 0 0 0 0 0 0 0 0 0 0 0 0 0 0 0 0 0 0 0 0 0 0 0 0 0 0 0 0 0 0 0 0 0 0 0 0 0 0 0 0 0
CIN
0 0 0 0 0 0 0 0 0 0 0 0 0 0 0 0 0 0 0 0 0 0 0 0 0 0 0 0 0 0 0 0 0 0 0 0 0 0 0 0 0 0 0
0 0 0 0 0 0 0 0 0 0 0 0 0 0 0 0 0 0 0 0 0 0 0 0 0 0 0 0 0 0 0 0 0 0 0 0 0 0 0 0 0 0 0
0 0 0 0 0 0 0 0 0 0 0 0 0 0 0 0 0 0 0 0 0 0 0 0 0 0 0 0 0 0 0 0 0 0 0 0 0 0 0 0 0 0 0
0 0 0 0 0 0 0 0 0 0 0 0 0 0 0 0 0 0 0 0 0 0 0 0 0 0 0 0 0 0 0 0 0 0 0 0 0 0 0 0 0 0 0
0 0 0 0 0 0 0 0 0 0 0 0 0 0 0 0 0 0 0 0 0 0 0 0 0 0 0 0 0 0 0 0 0 0 0 0 0 0 0 0 0 0 0
0 0 0 0 0 0 0 0 0 0 0 0 0 0 0 0 0 0 0 0 0 0 0 0 0 0 0 0 0 0 0 0 0 0 0 0 0 0 0 0 0 0 0
0 0 0 0 0 0 0 0 0 0 0 0 0 0 0 0 0 0 0 0 0 0 0 0 0 0 0 0 0 0 0 0 0 0 0 0 0 0 0 0 0 0 0
0 0 0 0 0 0 0 0 0 0 0 0 0 0 0 0 0 0 0 0 0 0 0 0 0 0 0 0 0 0 0 0 0 0 0 0 0 0 0 0 0 0 0
0 0 0 0 0 0 0 0 0 0 0 0 0 0 0 0 0 0 0 0 0 0 0 0 0 0 0 0 0 0 0 0 0 0 0 0 0 0 0 0 0 0 0
0 0 0 0 0 0 0 0 0 0 0 0 0 0 0 0 0 0 0 0 0 0 0 0 0 0 0 0 0 0 0 0 0 0 0 0 0 0 0 0 0 0 0
0 0 0 0 0 0 0 0 0 0 0 0 0 0 0 0 0 0 0 0 0 0 0 0 0 0 0 0 0 0 0 0 0 0 0 0 0 0 0 0 0 0 0
0 0 0 0 0 0 0 0 0 0 0 0 0 0 0 0 0 0 0 0 0 0 0 0 0 0 0 0 0 0 0 0 0 0 0 0 0 0 0 0 0 0 0
0 0 0 0 0 0 0 0 0 0 0 0 0 0 0 0 0 0 0 0 0 0 0 0 0 0 0 0 0 0 0 0 0 0 0 0 0 0 0 0 0 0 0
0 0 0 0 0 0 0 0 0 0 0 0 0 0 0 0 0 0 0 0 0 0 0 0 0 0 0 0 0 0 0 0 0 0 0 0 0 0 0 0 0 0 0
0 0 0 0 0 0 0 0 0 0 0 0 0 0 0 0 0 0 0 0 0 0 0 0 0 0 0 0 0 0 0 0 0 0 0 0 0 0 0 0 0 0 0
0 0 0 0 0 0 0 0 0 0 0 0 0 0 0 0 0 0 0 0 0 0 0 0 0 0 0 0 0 0 0 0 0 0 0 0 0 0 0 0 0 0 0
0 0 0 0 0 0 0 0 0 0 0 0 0 0 0 0 0 0 0 0 0 0 0 0 0 0 0 0 0 0 0 0 0 0 0 0 0 0 0 0 0 0 0
0 0 0 0 0 0 0 0 0 0 0 0 0 0 0 0 0 0 0 0 0 0 0 0 0 0 0 0 0 0 0 0 0 0 0 0 0 0 0 0 0 0 0
0 0 0 0 0 0 0 0 0 0 0 0 0 0 0 0 0 0 0 0 0 0 0 0 0 0 0 0 0 0 0 0 0 0 0 0 0 0 0 0 0 0 0
0 0 0 0 0 0 0 0 0 0 0 0 0 0 0 0 0 0 0 0 0 0 0 0 0 0 0 0 0 0 0 0 0 0 0 0 0 0 0 0 0 0 0
0 0 0 0 0 0 0 0 0 0 0 0 0 0 0 0 0 0 0 0 0 0 0 0 0 0 0 0 0 0 0 0 0 0 0 0 0 0 0 0 0 0 0
0 0 0 0 0 0 0 0 0 0 0 0 0 0 0 0 0 0 0 0 0 0 0 0 0 0 0 0 0 0 0 0 0 0 0 0 0 0 0 0 0 0 0
0 0 0 0 0 0 0 0 0 0 0 0 0 0 0 0 0 0 0 0 0 0 0 0 0 0 0 0 0 0 0 0 0 0 0 0 0 0 0 0 0 0 0
0 0 0 0 0 0 0 0 0 0 0 0 0 0 0 0 0 0 0 0 0 0 0 0 0 0 0 0 0 0 0 0 0 0 0 0 0 0 0 0 0 0 0
0 0 0 0 0 0 0 0 0 0 0 0 0 0 0 0 0 0 0 0 0 0 0 0 0 0 0 0 0 0 0 0 0 0 0 0 0 0 0 0 0 0 0
0 0 0 0 0 0 0 0 0 0 0 0 0 0 0 0 0 0 0 0 0 0 0 0 0 0 0 0 0 0 0 0 0 0 0 0 0 0 0 0 0 0 0
Wind_Speed
11 15 15 15 16 18 18 18 19 20 19 18 17 16 16 17 15 12 10 11 10 12 12 13 15 16 18 19 18 20 20 22 26 24 25 17 18 20 21 20 24 24 24
10 12 14 15 16 16 16 18 20 19 15 12 12 12 12 11 9 7 6 8 8 8 9 9 12 14 13 16 16 19 18 21 21 19 15 18 21 18 19 21 23 23 22
14 15 15 15 16 16 17 17 16 13 11 9 9 8 7 5 3 3 3 4 5 8 9 9 10 11 12 12 12 12 15 15 16 13 15 17 16 15 19 22 24 24 27
19 16 15 15 16 15 13 12 11 10 8 8 6 4 2 1 0 1 1 2 3 5 6 8 9 9 10 11 10 12 13 13 12 12 13 17 17 16 19 23 25 26 31
21 18 16 13 11 9 6 6 5 4 4 3 3 3 3 3 1 2 2 3 4 5 7 7 9 9 10 11 12 12 11 11 12 11 14 17 19 20 22 23 26 31 30
25 24 19 15 9 6 5 4 4 4 3 3 4 4 4 4 5 6 5 5 6 7 7 8 9 11 11 12 12 13 13 12 13 15 15 17 18 21 21 24 28 30 31
24 24 24 25 23 19 12 5 4 5 6 6 6 8 8 7 8 8 7 7 7 8 9 9 10 11 11 12 13 13 14 15 15 15 16 19 20 20 22 25 28 31 33
28 28 27 26 24 21 18 12 6 4 3 3 5 7 10 9 10 10 10 9 10 10 9 10 11 12 13 13 14 14 15 16 16 17 17 18 19 21 23 26 29 31 33
30 30 28 27 29 26 23 21 13 8 6 4 3 7 10 10 9 10 9 8 10 11 11 11 12 13 14 15 15 15 15 16 18 19 19 22 24 25 26 28 32 35 37
28 27 27 27 27 27 26 23 20 10 10 1 11 10 11 10 7 7 8 9 9 10 12 13 14 15 16 17 17 18 19 19 21 22 23 25 26 26 27 27 28 33 35
25 24 24 23 24 24 24 22 22 24 24 23 22 12 7 7 11 14 15 14 13 13 13 14 15 16 18 19 18 19 20 20 23 25 27 28 28 28 29 28 26 29 33
23 24 23 22 22 23 24 23 24 23 23 22 21 20 19 18 16 15 14 13 13 13 13 14 15 16 18 19 19 21 22 21 24 27 29 31 31 31 30 28 28 28 29
21 21 21 21 21 21 21 20 20 19 18 17 16 15 14 13 12 12 12 12 12 12 12 13 15 19 21 22 23 23 23 25 27 30 32 32 31 32 33 33 31 31 32
18 17 17 17 17 16 16 15 14 14 13 12 11 9 8 8 7 7 9 10 11 13 15 16 18 21 21 22 24 25 25 26 27 29 30 31 31 33 35 33 36 37 38
14 14 13 13 12 12 11 11 9 9 8 6 5 5 6 7 7 7 9 11 13 15 18 20 22 24 26 27 27 27 28 28 29 29 31 33 35 35 36 35 37 38 40
10 10 10 9 9 8 7 6 7 6 4 3 1 3 4 4 10 10 10 11 13 16 20 22 24 25 28 30 31 32 31 31 31 32 35 36 38 39 39 38 38 39 41
8 7 6 6 6 5 3 3 3 2 3 5 4 5 7 9 11 12 14 15 16 18 21 24 25 26 29 31 33 34 35 33 32 34 35 37 38 38 38 39 39 40 40
8 6 4 4 3 3 4 5 5 7 9 11 9 10 12 12 13 15 17 19 21 21 23 25 27 29 31 33 34 34 35 35 35 35 36 37 37 37 37 38 39 39 41
8 7 6 6 6 7 8 9 10 11 12 15 17 18 17 16 17 18 20 22 24 25 26 27 29 31 33 34 35 36 36 37 37 38 37 37 36 36 37 38 38 38 39
10 10 9 9 10 10 11 12 13 14 16 18 19 20 23 23 22 23 23 24 26 27 29 31 33 34 35 36 37 37 37 38 39 38 38 36 34 34 36 37 37 40 40
11 12 12 12 13 14 15 15 17 18 19 20 22 24 23 23 25 26 27 27 29 30 32 34 36 36 36 36 37 38 39 40 40 38 36 35 34 34 35 34 35 36 38
13 14 14 15 16 17 18 19 20 20 21 23 25 26 25 26 27 29 29 31 32 32 33 35 36 36 36 37 37 38 39 40 39 36 35 34 33 34 34 34 35 36 38
14 16 17 18 19 20 21 22 23 24 25 27 28 29 29 30 30 31 33 33 34 34 34 34 36 37 36 37 37 38 39 38 36 33 34 33 33 33 33 34 36 37 38
16 18 20 21 22 23 24 25 26 27 29 31 32 32 33 33 33 34 34 34 35 35 35 36 36 37 37 38 38 36 36 35 34 33 31 32 32 32 33 34 36 37 38
19 20 22 23 24 25 26 28 29 30 32 32 34 34 34 34 34 35 35 36 37 37 37 36 36 37 38 36 36 35 34 33 32 31 30 30 31 31 33 35 36 37 37
20 21 23 25 26 27 29 31 33 34 35 35 35 35 35 36 37 37 37 36 36 36 37 38 39 38 37 36 35 34 33 33 31 30 29 30 31 32 32 34 35 36 36
Wind_Direction
214 261 270 260 249 241 239 243 240 237 242 250 256 258 258 256 259 263 268 268 267 273 284 286 286 286 284 289 290 288 283 284 283 284 283 284 286 284 290 297 297 299 303
176 190 207 218 220 224 227 221 218 223 237 249 250 247 247 251 257 265 267 275 275 277 289 290 291 293 296 295 297 290 290 288 286 281 287 286 287 292 298 301 302 306 309
144 156 168 182 190 195 198 201 205 213 221 224 225 228 235 251 269 276 279 285 291 287 289 293 299 306 307 302 309 309 292 296 299 291 290 290 298 305 300 303 304 309 307
128 143 156 164 171 180 189 193 194 196 196 199 203 202 212 243 37 13 3 337 321 319 315 317 308 313 308 317 318 316 315 319 316 301 300 297 304 312 311 305 308 310 309
126 135 145 158 169 175 176 175 166 153 159 153 108 84 74 63 38 43 17 3 352 345 339 340 338 337 326 326 332 331 328 336 319 317 309 304 307 309 310 314 312 310 312
122 123 132 141 147 153 141 130 126 107 89 77 67 62 60 46 40 36 34 26 17 13 10 357 346 356 360 359 357 353 341 332 320 315 322 316 315 314 322 321 318 317 315
125 127 127 130 136 145 153 130 91 75 64 59 52 47 43 37 39 36 33 21 15 6 6 2 1 4 360 3 5 358 353 345 339 332 327 324 324 326 325 323 321 317 315
121 123 126 130 136 143 148 151 144 136 81 58 42 36 44 39 39 39 33 22 22 12 2 3 357 353 1 353 353 349 346 349 354 353 348 340 333 329 326 324 322 320 319
117 121 127 131 127 135 143 145 158 160 163 46 30 31 34 32 26 28 23 9 16 15 8 2 0 356 356 3 4 1 359 353 346 343 341 337 333 330 329 327 323 322 320
121 126 127 130 130 131 134 143 151 173 176 298 30 22 21 18 350 337 345 352 360 0 13 356 356 354 350 351 350 347 344 342 339 337 334 333 333 332 331 330 327 324 324
128 129 130 134 131 134 134 141 142 137 135 138 142 192 255 273 359 34 44 45 38 27 16 3 356 351 346 344 346 344 341 340 338 335 333 332 333 333 332 332 330 326 323
125 124 127 133 133 131 125 125 120 114 108 107 105 103 105 90 66 57 48 40 33 17 6 2 355 350 344 342 343 339 339 341 338 334 332 331 331 331 331 331 329 325 322
119 121 121 118 116 116 113 113 111 109 108 107 105 99 89 77 64 49 35 26 17 7 2 355 346 337 334 334 332 334 336 334 333 330 329 330 331 330 329 328 327 325 321
117 117 116 115 115 115 116 113 108 107 106 103 98 92 79 62 49 38 18 6 357 348 342 338 334 331 330 329 328 328 328 327 327 328 329 329 330 329 328 327 326 325 322
127 125 124 120 118 119 120 118 117 123 112 95 91 55 27 12 3 359 348 342 338 335 331 327 323 322 321 320 319 320 321 322 321 323 323 324 326 326 326 327 325 323 320
137 138 142 138 137 137 136 140 158 158 144 164 119 4 346 335 343 336 329 326 326 326 324 321 319 317 316 316 316 317 317 316 317 318 318 319 320 321 323 325 324 321 319
163 160 158 160 165 169 173 189 216 326 236 237 258 293 304 320 322 318 319 319 316 316 312 314 313 314 314 314 313 313 314 315 315 314 314 315 316 317 318 320 320 319 319
193 194 206 217 231 250 262 273 289 300 308 314 309 299 307 303 306 309 310 314 312 309 307 308 309 311 311 311 311 311 312 313 312 312 312 313 313 314 315 316 317 317 318
223 237 244 258 266 274 281 290 295 296 300 307 315 314 307 303 302 302 303 301 304 306 306 305 306 308 308 308 308 308 309 310 310 311 311 312 312 312 312 313 315 315 317
241 246 257 265 275 278 284 288 293 295 301 303 306 305 313 313 305 302 302 300 300 300 303 304 306 306 307 307 308 308 308 309 309 310 311 311 311 311 311 312 313 315 316
260 263 261 277 280 283 285 286 292 296 295 299 299 306 307 303 302 304 303 301 299 299 300 303 305 306 306 307 307 307 307 308 309 310 311 311 311 311 311 312 313 315 315
265 272 276 272 284 287 287 293 295 293 294 296 301 305 304 301 301 302 301 302 302 302 303 303 304 306 306 307 307 308 307 307 309 310 311 311 312 312 312 312 314 315 316
272 278 283 286 289 293 294 295 296 297 298 301 304 305 305 303 302 302 302 303 304 304 304 304 304 306 307 307 306 307 307 309 310 310 311 312 312 312 312 313 314 316 317
288 291 293 295 296 296 296 298 300 300 301 303 305 305 305 304 304 304 304 305 305 305 305 305 305 306 307 307 308 308 308 309 310 311 310 311 311 312 313 313 315 316 317
298 297 298 299 300 301 302 303 304 305 305 306 307 307 308 307 307 307 307 308 307 306 306 306 306 307 307 308 308 309 309 310 309 310 311 311 311 312 313 314 315 317 317
308 307 307 308 308 308 308 309 310 310 310 310 311 311 310 310 310 310 310 309 308 308 308 308 308 307 308 309 310 310 310 310 310 310 311 311 311 313 314 314 315 316 317